Location: Izdebno
(52.6670°N, 16.2170°E)
Time: 13:15:07
(UTC+02:00)

A-11 Canister half - Pass Details

Date: 01 March 2024
Orbit: 1525 x 1683 km, 47.3° (Epoch: 24 April)

Event Time Altitude Azimuth Distance (km) Brightness Sun altitude
Rises 23:41:01 0° 276° (W) 4,730 11.7 -44.1°
Reaches altitude 10° 23:44:10 10° 273° (W) 3,729 11.1 -44.2°
Enters shadow 23:45:13 14° 271° (W) 3,411 10.8 -44.2°
